Year,Month,Day,Hour,Minute,Value (Times are PST for windgust in km/hr)
2017,05,23,02,16,4.80
2017,05,23,02,17,4.80
2017,05,23,02,18,4.80
2017,05,23,02,19,6.40
2017,05,23,02,20,4.80
2017,05,23,02,21,4.80
2017,05,23,02,22,4.80
2017,05,23,02,23,4.80
2017,05,23,02,24,4.80
2017,05,23,02,25,3.20
2017,05,23,02,26,1.60
2017,05,23,02,27,1.60
2017,05,23,02,34,3.20
2017,05,23,02,35,6.40
2017,05,23,02,36,6.40
2017,05,23,02,37,4.80
2017,05,23,02,38,8.10
2017,05,23,02,39,6.40
2017,05,23,02,40,6.40
2017,05,23,02,41,4.80
2017,05,23,02,42,4.80
2017,05,23,02,43,4.80
2017,05,23,02,44,4.80
2017,05,23,02,45,4.80
2017,05,23,02,46,4.80
2017,05,23,02,47,3.20
2017,05,23,02,48,3.20
2017,05,23,02,49,3.20
2017,05,23,02,50,3.20
2017,05,23,02,51,3.20
2017,05,23,02,52,3.20
2017,05,23,02,53,3.20
2017,05,23,06,31,4.80
2017,05,23,06,32,4.80
2017,05,23,06,33,4.80
2017,05,23,06,34,3.20
2017,05,23,06,35,3.20
2017,05,23,06,36,3.20
2017,05,23,06,37,4.80
2017,05,23,06,38,1.60
2017,05,23,06,39,1.60
2017,05,23,06,40,1.60
2017,05,23,06,41,1.60
2017,05,23,06,43,1.60
2017,05,23,06,44,1.60
2017,05,23,06,45,1.60
2017,05,23,06,47,6.40
2017,05,23,06,48,6.40
2017,05,23,06,49,4.80
2017,05,23,06,50,4.80
2017,05,23,06,51,1.60
2017,05,23,06,53,3.20
2017,05,23,06,54,3.20
2017,05,23,06,55,3.20
2017,05,23,06,56,1.60
2017,05,23,06,57,1.60
2017,05,23,06,58,3.20
2017,05,23,06,59,3.20
2017,05,23,07,00,3.20
2017,05,23,07,04,4.80
2017,05,23,07,05,4.80
2017,05,23,07,06,4.80
2017,05,23,07,07,4.80
2017,05,23,07,08,4.80
2017,05,23,07,09,3.20
2017,05,23,07,10,3.20
2017,05,23,07,11,4.80
2017,05,23,07,12,3.20
2017,05,23,07,13,1.60
2017,05,23,07,14,4.80
2017,05,23,07,15,4.80
2017,05,23,07,16,3.20
2017,05,23,07,17,4.80
2017,05,23,07,18,4.80
2017,05,23,07,19,6.40
2017,05,23,07,20,6.40
2017,05,23,07,21,1.60
2017,05,23,07,22,6.40
2017,05,23,07,23,9.60
2017,05,23,07,24,8.10
2017,05,23,07,25,4.80
2017,05,23,07,26,6.40
2017,05,23,07,27,8.10
2017,05,23,07,28,11.30
2017,05,23,07,29,6.40
2017,05,23,07,30,9.60
2017,05,23,07,31,8.10
2017,05,23,07,32,9.60
2017,05,23,07,33,8.10
2017,05,23,07,34,4.80
2017,05,23,07,35,9.60
2017,05,23,07,36,9.60
2017,05,23,07,37,8.10
2017,05,23,07,38,4.80
2017,05,23,07,39,4.80
2017,05,23,07,40,6.40
2017,05,23,07,41,6.40
2017,05,23,07,42,4.80
2017,05,23,07,43,6.40
2017,05,23,07,44,6.40
2017,05,23,07,45,8.10
2017,05,23,07,46,9.60
2017,05,23,07,47,9.60
2017,05,23,07,48,9.60
2017,05,23,07,49,14.50
2017,05,23,07,50,16.10
2017,05,23,07,51,12.90
2017,05,23,07,52,11.30
2017,05,23,07,53,9.60
2017,05,23,07,54,9.60
2017,05,23,07,55,9.60
2017,05,23,07,56,11.30
2017,05,23,07,57,11.30
2017,05,23,07,58,9.60
2017,05,23,07,59,11.30
2017,05,23,08,00,16.10
2017,05,23,08,01,11.30
2017,05,23,08,02,12.90
2017,05,23,08,03,14.50
2017,05,23,08,04,14.50
2017,05,23,08,05,12.90
2017,05,23,08,06,17.70
2017,05,23,08,07,17.70
2017,05,23,08,08,11.30
2017,05,23,08,09,14.50
2017,05,23,08,10,16.10
2017,05,23,08,11,17.70
2017,05,23,08,12,14.50
2017,05,23,08,13,14.50
2017,05,23,08,14,8.10
2017,05,23,08,15,12.90
2017,05,23,08,16,11.30
2017,05,23,08,17,8.10
2017,05,23,08,18,14.50
2017,05,23,08,19,12.90
2017,05,23,08,20,8.10
2017,05,23,08,21,14.50
2017,05,23,08,22,11.30
2017,05,23,08,23,12.90
2017,05,23,08,24,14.50
2017,05,23,08,25,8.10
2017,05,23,08,26,9.60
2017,05,23,08,27,8.10
2017,05,23,08,28,8.10
2017,05,23,08,29,6.40
2017,05,23,08,30,6.40
2017,05,23,08,31,8.10
2017,05,23,08,32,8.10
2017,05,23,08,33,3.20
2017,05,23,08,34,6.40
2017,05,23,08,35,6.40
2017,05,23,08,36,8.10
2017,05,23,08,37,11.30
2017,05,23,08,38,9.60
2017,05,23,08,39,12.90
2017,05,23,08,40,11.30
2017,05,23,08,41,11.30
2017,05,23,08,42,14.50
2017,05,23,08,43,12.90
2017,05,23,08,44,12.90
2017,05,23,08,45,12.90
2017,05,23,08,46,9.60
2017,05,23,08,47,6.40
2017,05,23,08,48,11.30
2017,05,23,08,49,11.30
2017,05,23,08,50,12.90
2017,05,23,08,51,12.90
2017,05,23,08,52,9.60
2017,05,23,08,53,9.60
2017,05,23,08,54,11.30
2017,05,23,08,55,8.10
2017,05,23,08,56,8.10
2017,05,23,08,57,9.60
2017,05,23,08,58,16.10
2017,05,23,08,59,16.10
2017,05,23,09,00,11.30
2017,05,23,09,01,16.10
2017,05,23,09,02,17.70
2017,05,23,09,03,17.70
2017,05,23,09,04,17.70
2017,05,23,09,05,17.70
2017,05,23,09,06,12.90
2017,05,23,09,07,17.70
2017,05,23,09,08,16.10
2017,05,23,09,09,16.10
2017,05,23,09,10,19.30
2017,05,23,09,11,12.90
2017,05,23,09,12,14.50
2017,05,23,09,13,17.70
2017,05,23,09,14,16.10
2017,05,23,09,15,16.10
2017,05,23,09,16,19.30
2017,05,23,09,17,14.50
2017,05,23,09,18,19.30
2017,05,23,09,19,17.70
2017,05,23,09,20,14.50
2017,05,23,09,21,17.70
2017,05,23,09,22,17.70
2017,05,23,09,23,14.50
2017,05,23,09,24,14.50
2017,05,23,09,25,20.90
2017,05,23,09,26,20.90
2017,05,23,09,27,22.50
2017,05,23,09,28,17.70
2017,05,23,09,29,8.10
2017,05,23,09,30,20.90
2017,05,23,09,31,17.70
2017,05,23,09,32,17.70
2017,05,23,09,33,12.90
2017,05,23,09,34,11.30
2017,05,23,09,35,16.10
2017,05,23,09,36,12.90
2017,05,23,09,37,17.70
2017,05,23,09,38,16.10
2017,05,23,09,39,20.90
2017,05,23,09,40,17.70
2017,05,23,09,41,16.10
2017,05,23,09,42,17.70
2017,05,23,09,43,12.90
2017,05,23,09,44,14.50
2017,05,23,09,45,14.50
2017,05,23,09,46,19.30
2017,05,23,09,47,16.10
2017,05,23,09,48,19.30
2017,05,23,09,49,12.90
2017,05,23,09,50,17.70
2017,05,23,09,51,19.30
2017,05,23,09,52,16.10
2017,05,23,09,53,22.50
2017,05,23,09,54,16.10
2017,05,23,09,55,20.90
2017,05,23,09,56,20.90
2017,05,23,09,57,16.10
2017,05,23,09,58,14.50
2017,05,23,09,59,17.70
2017,05,23,10,00,16.10
2017,05,23,10,01,19.30
2017,05,23,10,02,14.50
2017,05,23,10,03,17.70
2017,05,23,10,04,19.30
2017,05,23,10,05,25.70
2017,05,23,10,06,17.70
2017,05,23,10,07,24.20
2017,05,23,10,08,24.20
2017,05,23,10,09,22.50
2017,05,23,10,10,29.00
2017,05,23,10,11,24.20
2017,05,23,10,12,20.90
2017,05,23,10,13,27.40
2017,05,23,10,14,22.50
2017,05,23,10,15,24.20
2017,05,23,10,16,22.50
2017,05,23,10,17,29.00
2017,05,23,10,18,30.60
2017,05,23,10,19,27.40
2017,05,23,10,20,25.70
2017,05,23,10,21,24.20
2017,05,23,10,22,16.10
2017,05,23,10,23,22.50
2017,05,23,10,24,22.50
2017,05,23,10,25,25.70
2017,05,23,10,26,27.40
2017,05,23,10,27,19.30
2017,05,23,10,28,17.70
2017,05,23,10,29,17.70
2017,05,23,10,30,19.30
2017,05,23,10,31,16.10
2017,05,23,10,32,20.90
2017,05,23,10,33,25.70
2017,05,23,10,34,30.60
2017,05,23,10,35,25.70
2017,05,23,10,36,22.50
2017,05,23,10,37,27.40
2017,05,23,10,38,29.00
2017,05,23,10,39,27.40
2017,05,23,10,40,25.70
2017,05,23,10,41,27.40
2017,05,23,10,42,22.50
2017,05,23,10,43,19.30
2017,05,23,10,44,19.30
2017,05,23,10,45,32.20
2017,05,23,10,46,27.40
2017,05,23,10,47,20.90
2017,05,23,10,48,19.30
2017,05,23,10,49,17.70
2017,05,23,10,50,29.00
2017,05,23,10,51,27.40
2017,05,23,10,52,30.60
2017,05,23,10,53,24.20
2017,05,23,10,54,43.50
2017,05,23,10,55,30.60
2017,05,23,10,56,32.20
2017,05,23,10,57,29.00
2017,05,23,10,58,38.60
2017,05,23,10,59,30.60
2017,05,23,11,00,25.70
2017,05,23,11,01,20.90
2017,05,23,11,02,30.60
2017,05,23,11,03,35.40
2017,05,23,11,04,30.60
2017,05,23,11,05,30.60
2017,05,23,11,06,38.60
2017,05,23,11,07,35.40
2017,05,23,11,08,45.10
2017,05,23,11,09,40.20
2017,05,23,11,10,43.50
2017,05,23,11,11,43.50
2017,05,23,11,12,45.10
2017,05,23,11,13,46.70
2017,05,23,11,14,45.10
2017,05,23,11,15,40.20
2017,05,23,11,16,41.80
2017,05,23,11,17,37.00
2017,05,23,11,18,32.20
2017,05,23,11,19,30.60
2017,05,23,11,20,41.80
2017,05,23,11,21,37.00
2017,05,23,11,22,38.60
2017,05,23,11,23,32.20
2017,05,23,11,24,41.80
2017,05,23,11,25,33.80
2017,05,23,11,26,41.80
2017,05,23,11,27,32.20
2017,05,23,11,28,38.60
2017,05,23,11,29,38.60
2017,05,23,11,30,30.60
2017,05,23,11,31,32.20
2017,05,23,11,32,37.00
2017,05,23,11,33,40.20
2017,05,23,11,34,33.80
2017,05,23,11,35,32.20
2017,05,23,11,36,27.40
2017,05,23,11,37,32.20
2017,05,23,11,38,32.20
2017,05,23,11,39,25.70
2017,05,23,11,40,33.80
2017,05,23,11,41,32.20
2017,05,23,11,42,35.40
2017,05,23,11,43,25.70
2017,05,23,11,44,30.60
2017,05,23,11,45,29.00
2017,05,23,11,46,33.80
2017,05,23,11,47,32.20
2017,05,23,11,48,29.00
2017,05,23,11,49,29.00
2017,05,23,11,50,27.40
2017,05,23,11,51,33.80
2017,05,23,11,52,38.60
2017,05,23,11,53,32.20
2017,05,23,11,54,29.00
2017,05,23,11,55,25.70
2017,05,23,11,56,38.60
2017,05,23,11,57,45.10
2017,05,23,11,58,41.80
2017,05,23,11,59,37.00
2017,05,23,12,00,35.40
2017,05,23,12,01,33.80
2017,05,23,12,02,33.80
2017,05,23,12,03,37.00
2017,05,23,12,04,37.00
2017,05,23,12,05,38.60
2017,05,23,12,06,40.20
2017,05,23,12,07,48.30
2017,05,23,12,08,38.60
2017,05,23,12,09,43.50
2017,05,23,12,10,45.10
2017,05,23,12,11,35.40
2017,05,23,12,12,30.60
2017,05,23,12,13,48.30
2017,05,23,12,14,33.80
2017,05,23,12,15,48.30
2017,05,23,12,16,48.30
2017,05,23,12,17,38.60
2017,05,23,12,18,41.80
2017,05,23,12,19,38.60
2017,05,23,12,20,43.50
2017,05,23,12,21,38.60
2017,05,23,12,22,41.80
2017,05,23,12,23,37.00
2017,05,23,12,24,40.20
2017,05,23,12,25,35.40
2017,05,23,12,26,46.70
2017,05,23,12,27,43.50
2017,05,23,12,28,30.60
2017,05,23,12,29,43.50
2017,05,23,12,30,45.10
2017,05,23,12,31,38.60
2017,05,23,12,32,32.20
2017,05,23,12,33,37.00
2017,05,23,12,34,38.60
2017,05,23,12,35,22.50
2017,05,23,12,36,30.60
2017,05,23,12,37,27.40
2017,05,23,12,38,22.50
2017,05,23,12,39,29.00
2017,05,23,12,40,38.60
2017,05,23,12,41,35.40
2017,05,23,12,42,32.20
2017,05,23,12,43,32.20
2017,05,23,12,44,40.20
2017,05,23,12,45,32.20
2017,05,23,12,46,38.60
2017,05,23,12,47,43.50
2017,05,23,12,48,30.60
2017,05,23,12,49,35.40
2017,05,23,12,50,29.00
2017,05,23,12,51,30.60
2017,05,23,12,52,27.40
2017,05,23,12,53,32.20
2017,05,23,12,54,37.00
2017,05,23,12,55,25.70
2017,05,23,12,56,35.40
2017,05,23,12,57,30.60
2017,05,23,12,58,41.80
2017,05,23,12,59,37.00
2017,05,23,13,00,33.80
2017,05,23,13,01,37.00
2017,05,23,13,02,29.00
2017,05,23,13,03,27.40
2017,05,23,13,04,32.20
2017,05,23,13,05,30.60
2017,05,23,13,06,29.00
2017,05,23,13,07,25.70
2017,05,23,13,08,25.70
2017,05,23,13,09,24.20
2017,05,23,13,10,25.70
2017,05,23,13,11,29.00
2017,05,23,13,12,33.80
2017,05,23,13,13,29.00
2017,05,23,13,14,35.40
2017,05,23,13,15,32.20
2017,05,23,13,16,41.80
2017,05,23,13,17,48.30
2017,05,23,13,18,37.00
2017,05,23,13,19,33.80
2017,05,23,13,20,30.60
2017,05,23,13,21,33.80
2017,05,23,13,22,27.40
2017,05,23,13,23,35.40
2017,05,23,13,24,35.40
2017,05,23,13,25,27.40
2017,05,23,13,26,20.90
2017,05,23,13,27,32.20
2017,05,23,13,28,38.60
2017,05,23,13,29,27.40
2017,05,23,13,30,37.00
2017,05,23,13,31,29.00
2017,05,23,13,32,38.60
2017,05,23,13,33,37.00
2017,05,23,13,34,35.40
2017,05,23,13,35,38.60
2017,05,23,13,36,35.40
2017,05,23,13,37,22.50
2017,05,23,13,38,25.70
2017,05,23,13,39,43.50
2017,05,23,13,40,32.20
2017,05,23,13,41,33.80
2017,05,23,13,42,27.40
2017,05,23,13,43,32.20
2017,05,23,13,44,37.00
2017,05,23,13,45,38.60
2017,05,23,13,46,32.20
2017,05,23,13,47,45.10
2017,05,23,13,48,45.10
2017,05,23,13,49,37.00
2017,05,23,13,50,45.10
2017,05,23,13,51,59.50
2017,05,23,13,52,57.90
2017,05,23,13,53,38.60
2017,05,23,13,54,43.50
2017,05,23,13,55,33.80
2017,05,23,13,56,48.30
2017,05,23,13,57,38.60
2017,05,23,13,58,43.50
2017,05,23,13,59,46.70
2017,05,23,14,00,56.30
2017,05,23,14,01,37.00
2017,05,23,14,02,45.10
2017,05,23,14,03,51.50
2017,05,23,14,04,40.20
2017,05,23,14,05,43.50
2017,05,23,14,06,43.50
2017,05,23,14,07,51.50
2017,05,23,14,08,45.10
2017,05,23,14,09,45.10
2017,05,23,14,10,46.70
2017,05,23,14,11,37.00
2017,05,23,14,12,41.80
2017,05,23,14,13,51.50
2017,05,23,14,14,49.90
2017,05,23,14,15,46.70
2017,05,23,14,16,38.60
2017,05,23,14,17,45.10
2017,05,23,14,18,35.40
2017,05,23,14,19,48.30
2017,05,23,14,20,40.20
2017,05,23,14,21,46.70
2017,05,23,14,22,40.20
2017,05,23,14,23,38.60
2017,05,23,14,24,51.50
2017,05,23,14,25,40.20
2017,05,23,14,26,43.50
2017,05,23,14,27,46.70
2017,05,23,14,28,43.50
2017,05,23,14,29,32.20
2017,05,23,14,30,32.20
2017,05,23,14,31,43.50
2017,05,23,14,32,43.50
2017,05,23,14,33,43.50
2017,05,23,14,34,43.50
2017,05,23,14,35,40.20
2017,05,23,14,36,40.20
2017,05,23,14,37,38.60
2017,05,23,14,38,33.80
2017,05,23,14,39,45.10
2017,05,23,14,40,48.30
2017,05,23,14,41,43.50
2017,05,23,14,42,45.10
2017,05,23,14,43,38.60
2017,05,23,14,44,41.80
2017,05,23,14,45,48.30
2017,05,23,14,46,49.90
2017,05,23,14,47,38.60
2017,05,23,14,48,53.10
2017,05,23,14,49,38.60
2017,05,23,14,50,40.20
2017,05,23,14,51,33.80
2017,05,23,14,52,45.10
2017,05,23,14,53,46.70
2017,05,23,14,54,49.90
2017,05,23,14,55,43.50
2017,05,23,14,56,35.40
2017,05,23,14,57,40.20
2017,05,23,14,58,46.70
2017,05,23,14,59,46.70
2017,05,23,15,00,40.20
2017,05,23,15,01,45.10
2017,05,23,15,02,41.80
2017,05,23,15,03,46.70
2017,05,23,15,04,48.30
2017,05,23,15,05,32.20
2017,05,23,15,06,35.40
2017,05,23,15,07,40.20
2017,05,23,15,08,35.40
2017,05,23,15,09,37.00
2017,05,23,15,10,33.80
2017,05,23,15,11,25.70
2017,05,23,15,12,46.70
2017,05,23,15,13,32.20
2017,05,23,15,14,41.80
2017,05,23,15,15,40.20
2017,05,23,15,16,48.30
2017,05,23,15,17,49.90
2017,05,23,15,18,46.70
2017,05,23,15,19,48.30
2017,05,23,15,20,38.60
2017,05,23,15,21,33.80
2017,05,23,15,22,40.20
2017,05,23,15,23,33.80
2017,05,23,15,24,37.00
2017,05,23,15,25,38.60
2017,05,23,15,26,37.00
2017,05,23,15,27,40.20
2017,05,23,15,28,35.40
2017,05,23,15,29,33.80
2017,05,23,15,30,45.10
2017,05,23,15,31,33.80
2017,05,23,15,32,33.80
2017,05,23,15,33,38.60
2017,05,23,15,34,33.80
2017,05,23,15,35,51.50
2017,05,23,15,36,38.60
2017,05,23,15,37,40.20
2017,05,23,15,38,40.20
2017,05,23,15,39,43.50
2017,05,23,15,40,46.70
2017,05,23,15,41,40.20
2017,05,23,15,42,37.00
2017,05,23,15,43,56.30
2017,05,23,15,44,33.80
2017,05,23,15,45,43.50
2017,05,23,15,46,43.50
2017,05,23,15,47,48.30
2017,05,23,15,48,45.10
2017,05,23,15,49,46.70
2017,05,23,15,50,40.20
2017,05,23,15,51,46.70
2017,05,23,15,52,43.50
2017,05,23,15,53,40.20
2017,05,23,15,54,32.20
2017,05,23,15,55,43.50
2017,05,23,15,56,40.20
2017,05,23,15,57,38.60
2017,05,23,15,58,40.20
2017,05,23,15,59,48.30
2017,05,23,16,00,38.60
2017,05,23,16,01,41.80
2017,05,23,16,02,35.40
2017,05,23,16,03,35.40
2017,05,23,16,04,43.50
2017,05,23,16,05,40.20
2017,05,23,16,06,51.50
2017,05,23,16,07,35.40
2017,05,23,16,08,27.40
2017,05,23,16,09,41.80
2017,05,23,16,10,41.80
2017,05,23,16,11,33.80
2017,05,23,16,12,32.20
2017,05,23,16,13,35.40
2017,05,23,16,14,41.80
2017,05,23,16,15,49.90
2017,05,23,16,16,46.70
2017,05,23,16,17,40.20
2017,05,23,16,18,38.60
2017,05,23,16,19,32.20
2017,05,23,16,20,33.80
2017,05,23,16,21,37.00
2017,05,23,16,22,41.80
2017,05,23,16,23,46.70
2017,05,23,16,24,37.00
2017,05,23,16,25,48.30
2017,05,23,16,26,38.60
2017,05,23,16,27,41.80
2017,05,23,16,28,49.90
2017,05,23,16,29,46.70
2017,05,23,16,30,40.20
2017,05,23,16,31,38.60
2017,05,23,16,32,35.40
2017,05,23,16,33,41.80
2017,05,23,16,34,45.10
2017,05,23,16,35,43.50
2017,05,23,16,36,43.50
2017,05,23,16,37,38.60
2017,05,23,16,38,38.60
2017,05,23,16,39,46.70
2017,05,23,16,40,48.30
2017,05,23,16,41,43.50
2017,05,23,16,42,46.70
2017,05,23,16,43,41.80
2017,05,23,16,44,33.80
2017,05,23,16,45,41.80
2017,05,23,16,46,41.80
2017,05,23,16,47,33.80
2017,05,23,16,48,48.30
2017,05,23,16,49,43.50
2017,05,23,16,50,40.20
2017,05,23,16,51,43.50
2017,05,23,16,52,37.00
2017,05,23,16,53,45.10
2017,05,23,16,54,43.50
2017,05,23,16,55,40.20
2017,05,23,16,56,43.50
2017,05,23,16,57,41.80
2017,05,23,16,58,45.10
2017,05,23,16,59,45.10
2017,05,23,17,00,37.00
2017,05,23,17,01,48.30
2017,05,23,17,02,41.80
2017,05,23,17,03,32.20
2017,05,23,17,04,35.40
2017,05,23,17,05,45.10
2017,05,23,17,06,38.60
2017,05,23,17,07,40.20
2017,05,23,17,08,38.60
2017,05,23,17,09,45.10
2017,05,23,17,10,43.50
2017,05,23,17,11,53.10
2017,05,23,17,12,54.70
2017,05,23,17,13,49.90
2017,05,23,17,14,49.90
2017,05,23,17,15,38.60
2017,05,23,17,16,40.20
2017,05,23,17,17,43.50
2017,05,23,17,18,49.90
2017,05,23,17,19,38.60
2017,05,23,17,20,40.20
2017,05,23,17,21,43.50
2017,05,23,17,22,41.80
2017,05,23,17,23,30.60
2017,05,23,17,24,32.20
2017,05,23,17,25,45.10
2017,05,23,17,26,38.60
2017,05,23,17,27,27.40
2017,05,23,17,28,32.20
2017,05,23,17,29,32.20
2017,05,23,17,30,40.20
2017,05,23,17,31,38.60
2017,05,23,17,32,38.60
2017,05,23,17,33,27.40
2017,05,23,17,34,35.40
2017,05,23,17,35,35.40
2017,05,23,17,36,32.20
2017,05,23,17,37,38.60
2017,05,23,17,38,45.10
2017,05,23,17,39,53.10
2017,05,23,17,40,54.70
2017,05,23,17,41,43.50
2017,05,23,17,42,51.50
2017,05,23,17,43,37.00
2017,05,23,17,44,48.30
2017,05,23,17,45,38.60
2017,05,23,17,46,38.60
2017,05,23,17,47,43.50
2017,05,23,17,48,53.10
2017,05,23,17,49,41.80
2017,05,23,17,50,53.10
2017,05,23,17,51,48.30
2017,05,23,17,52,41.80
2017,05,23,17,53,38.60
2017,05,23,17,54,53.10
2017,05,23,17,55,30.60
2017,05,23,17,56,38.60
2017,05,23,17,57,49.90
2017,05,23,17,58,38.60
2017,05,23,17,59,45.10
2017,05,23,18,00,40.20
2017,05,23,18,01,38.60
2017,05,23,18,02,49.90
2017,05,23,18,03,40.20
2017,05,23,18,04,51.50
2017,05,23,18,05,51.50
2017,05,23,18,06,51.50
2017,05,23,18,07,46.70
2017,05,23,18,08,33.80
2017,05,23,18,09,46.70
2017,05,23,18,10,46.70
2017,05,23,18,11,41.80
2017,05,23,18,12,38.60
2017,05,23,18,13,43.50
2017,05,23,18,14,41.80
2017,05,23,18,15,38.60
2017,05,23,18,16,41.80
2017,05,23,18,17,43.50
2017,05,23,18,18,51.50
2017,05,23,18,19,45.10
2017,05,23,18,20,35.40
2017,05,23,18,21,45.10
2017,05,23,18,22,48.30
2017,05,23,18,23,45.10
2017,05,23,18,24,57.90
2017,05,23,18,25,46.70
2017,05,23,18,26,56.30
2017,05,23,18,27,51.50
2017,05,23,18,28,45.10
2017,05,23,18,29,48.30
2017,05,23,18,30,41.80
2017,05,23,18,31,45.10
2017,05,23,18,32,54.70
2017,05,23,18,33,46.70
2017,05,23,18,34,43.50
2017,05,23,18,35,35.40
2017,05,23,18,36,48.30
2017,05,23,18,37,56.30
2017,05,23,18,38,49.90
2017,05,23,18,39,48.30
2017,05,23,18,40,38.60
2017,05,23,18,41,54.70
2017,05,23,18,42,43.50
2017,05,23,18,43,41.80
2017,05,23,18,44,33.80
2017,05,23,18,45,54.70
2017,05,23,18,46,49.90
2017,05,23,18,47,46.70
2017,05,23,18,48,51.50
2017,05,23,18,49,49.90
2017,05,23,18,50,61.20
2017,05,23,18,51,40.20
2017,05,23,18,52,57.90
2017,05,23,18,53,49.90
2017,05,23,18,54,45.10
2017,05,23,18,55,37.00
2017,05,23,18,56,46.70
2017,05,23,18,57,45.10
2017,05,23,18,58,43.50
2017,05,23,18,59,37.00
2017,05,23,19,00,49.90
2017,05,23,19,01,51.50
2017,05,23,19,02,30.60
2017,05,23,19,03,46.70
2017,05,23,19,04,35.40
2017,05,23,19,05,49.90
2017,05,23,19,06,49.90
2017,05,23,19,07,57.90
2017,05,23,19,08,38.60
2017,05,23,19,09,48.30
2017,05,23,19,10,57.90
2017,05,23,19,11,46.70
2017,05,23,19,12,35.40
2017,05,23,19,13,53.10
2017,05,23,19,14,45.10
2017,05,23,19,15,51.50
2017,05,23,19,16,64.40
2017,05,23,19,17,51.50
2017,05,23,19,18,54.70
2017,05,23,19,19,48.30
2017,05,23,19,20,48.30
2017,05,23,19,21,41.80
2017,05,23,19,22,33.80
2017,05,23,19,23,61.20
2017,05,23,19,24,48.30
2017,05,23,19,25,46.70
2017,05,23,19,26,43.50
2017,05,23,19,27,48.30
2017,05,23,19,28,59.50
2017,05,23,19,29,57.90
2017,05,23,19,30,53.10
2017,05,23,19,31,35.40
2017,05,23,19,32,43.50
2017,05,23,19,33,49.90
2017,05,23,19,34,51.50
2017,05,23,19,35,51.50
2017,05,23,19,36,77.30
2017,05,23,19,37,46.70
2017,05,23,19,38,43.50
2017,05,23,19,39,43.50
2017,05,23,19,40,48.30
2017,05,23,19,41,40.20
2017,05,23,19,42,48.30
2017,05,23,19,43,46.70
2017,05,23,19,44,53.10
2017,05,23,19,45,43.50
2017,05,23,19,46,56.30
2017,05,23,19,47,45.10
2017,05,23,19,48,46.70
2017,05,23,19,49,51.50
2017,05,23,19,50,54.70
2017,05,23,19,51,45.10
2017,05,23,19,52,53.10
2017,05,23,19,53,54.70
2017,05,23,19,54,48.30
2017,05,23,19,55,46.70
2017,05,23,19,56,40.20
2017,05,23,19,57,33.80
2017,05,23,19,58,30.60
2017,05,23,19,59,37.00
2017,05,23,20,00,45.10
2017,05,23,20,01,41.80
2017,05,23,20,02,48.30
2017,05,23,20,03,43.50
2017,05,23,20,04,38.60
2017,05,23,20,05,46.70
2017,05,23,20,06,54.70
2017,05,23,20,07,38.60
2017,05,23,20,08,46.70
2017,05,23,20,09,45.10
2017,05,23,20,10,51.50
2017,05,23,20,11,43.50
2017,05,23,20,12,46.70
2017,05,23,20,13,49.90
2017,05,23,20,14,41.80
2017,05,23,20,15,43.50
2017,05,23,20,16,37.00
2017,05,23,20,17,46.70
2017,05,23,20,18,51.50
2017,05,23,20,19,45.10
2017,05,23,20,20,37.00
2017,05,23,20,21,35.40
2017,05,23,20,22,38.60
2017,05,23,20,23,38.60
2017,05,23,20,24,48.30
2017,05,23,20,25,35.40
2017,05,23,20,26,22.50
2017,05,23,20,27,11.30
2017,05,23,20,28,11.30
2017,05,23,20,29,11.30
2017,05,23,20,30,29.00
2017,05,23,20,31,33.80
2017,05,23,20,32,30.60
2017,05,23,20,33,43.50
2017,05,23,20,34,45.10
2017,05,23,20,35,38.60
2017,05,23,20,36,22.50
2017,05,23,20,37,32.20
2017,05,23,20,38,40.20
2017,05,23,20,39,45.10
2017,05,23,20,40,38.60
2017,05,23,20,41,25.70
2017,05,23,20,42,30.60
2017,05,23,20,43,38.60
2017,05,23,20,44,45.10
2017,05,23,20,45,43.50
2017,05,23,20,46,56.30
2017,05,23,20,47,41.80
2017,05,23,20,48,37.00
2017,05,23,20,49,30.60
2017,05,23,20,50,38.60
2017,05,23,20,51,41.80
2017,05,23,20,52,56.30
2017,05,23,20,53,53.10
2017,05,23,20,54,57.90
2017,05,23,20,55,40.20
2017,05,23,20,56,33.80
2017,05,23,20,57,38.60
2017,05,23,20,58,46.70
2017,05,23,20,59,51.50
2017,05,23,21,00,49.90
2017,05,23,21,01,53.10
2017,05,23,21,02,45.10
2017,05,23,21,03,38.60
2017,05,23,21,04,48.30
2017,05,23,21,05,57.90
2017,05,23,21,06,49.90
2017,05,23,21,07,43.50
2017,05,23,21,08,46.70
2017,05,23,21,09,53.10
2017,05,23,21,10,56.30
2017,05,23,21,11,43.50
2017,05,23,21,12,57.90
2017,05,23,21,13,46.70
2017,05,23,21,14,56.30
2017,05,23,21,15,45.10
2017,05,23,21,16,48.30
2017,05,23,21,17,45.10
2017,05,23,21,18,38.60
2017,05,23,21,19,35.40
2017,05,23,21,20,49.90
2017,05,23,21,21,41.80
2017,05,23,21,22,49.90
2017,05,23,21,23,43.50
2017,05,23,21,24,38.60
2017,05,23,21,25,51.50
2017,05,23,21,26,37.00
2017,05,23,21,27,48.30
2017,05,23,21,28,29.00
2017,05,23,21,29,45.10
2017,05,23,21,30,38.60
2017,05,23,21,31,30.60
2017,05,23,21,32,45.10
2017,05,23,21,33,33.80
2017,05,23,21,34,41.80
2017,05,23,21,35,27.40
2017,05,23,21,36,30.60
2017,05,23,21,37,29.00
2017,05,23,21,38,35.40
2017,05,23,21,39,25.70
2017,05,23,21,40,38.60
2017,05,23,21,41,38.60
2017,05,23,21,42,45.10
2017,05,23,21,43,41.80
2017,05,23,21,44,48.30
2017,05,23,21,45,37.00
2017,05,23,21,46,40.20
2017,05,23,21,47,33.80
2017,05,23,21,48,41.80
2017,05,23,21,49,32.20
2017,05,23,21,50,35.40
2017,05,23,21,51,32.20
2017,05,23,21,52,37.00
2017,05,23,21,53,24.20
2017,05,23,21,54,41.80
2017,05,23,21,55,16.10
2017,05,23,21,56,14.50
2017,05,23,21,57,38.60
2017,05,23,21,58,22.50
2017,05,23,21,59,17.70
2017,05,23,22,00,27.40
2017,05,23,22,01,29.00
2017,05,23,22,02,30.60
2017,05,23,22,03,27.40
2017,05,23,22,04,20.90
2017,05,23,22,05,19.30
2017,05,23,22,06,33.80
2017,05,23,22,07,22.50
2017,05,23,22,08,35.40
2017,05,23,22,09,33.80
2017,05,23,22,10,29.00
2017,05,23,22,11,25.70
2017,05,23,22,12,30.60
2017,05,23,22,13,25.70
2017,05,23,22,14,32.20
2017,05,23,22,15,30.60
2017,05,23,22,16,27.40
2017,05,23,22,17,25.70
2017,05,23,22,18,30.60
2017,05,23,22,19,25.70
2017,05,23,22,20,16.10
2017,05,23,22,21,24.20
2017,05,23,22,22,32.20
2017,05,23,22,23,29.00
2017,05,23,22,24,29.00
2017,05,23,22,25,33.80
2017,05,23,22,26,29.00
2017,05,23,22,27,37.00
2017,05,23,22,28,29.00
2017,05,23,22,29,37.00
2017,05,23,22,30,22.50
2017,05,23,22,31,38.60
2017,05,23,22,32,32.20
2017,05,23,22,33,33.80
2017,05,23,22,34,27.40
2017,05,23,22,35,37.00
2017,05,23,22,36,32.20
2017,05,23,22,37,32.20
2017,05,23,22,38,35.40
2017,05,23,22,39,32.20
2017,05,23,22,40,30.60
2017,05,23,22,41,27.40
2017,05,23,22,42,29.00
2017,05,23,22,43,20.90
2017,05,23,22,44,32.20
2017,05,23,22,45,32.20
2017,05,23,22,46,30.60
2017,05,23,22,47,33.80
2017,05,23,22,48,32.20
2017,05,23,22,49,33.80
2017,05,23,22,50,22.50
2017,05,23,22,51,29.00
2017,05,23,22,52,30.60
2017,05,23,22,53,30.60
2017,05,23,22,54,32.20
2017,05,23,22,55,22.50
2017,05,23,22,56,29.00
2017,05,23,22,57,33.80
2017,05,23,22,58,29.00
2017,05,23,22,59,37.00
2017,05,23,23,00,33.80
2017,05,23,23,01,27.40
2017,05,23,23,02,16.10
2017,05,23,23,03,27.40
2017,05,23,23,04,29.00
2017,05,23,23,05,29.00
2017,05,23,23,06,29.00
2017,05,23,23,07,27.40
2017,05,23,23,08,30.60
2017,05,23,23,09,33.80
2017,05,23,23,10,29.00
2017,05,23,23,11,24.20
2017,05,23,23,12,25.70
2017,05,23,23,13,35.40
2017,05,23,23,14,29.00
2017,05,23,23,15,27.40
2017,05,23,23,16,29.00
2017,05,23,23,17,35.40
2017,05,23,23,18,27.40
2017,05,23,23,19,22.50
2017,05,23,23,20,25.70
2017,05,23,23,21,37.00
2017,05,23,23,22,17.70
2017,05,23,23,23,37.00
2017,05,23,23,24,40.20
2017,05,23,23,25,27.40
2017,05,23,23,26,24.20
2017,05,23,23,27,33.80
2017,05,23,23,28,37.00
2017,05,23,23,29,35.40
2017,05,23,23,30,41.80